Volver al catálogo

STARLINK-37220

ActivoComunicacionesSSO
NORAD 68398·PAYLOAD·🇺🇸 United States

Lanzado Mar 26, 2026 desde Vandenberg Space Force Base

Loading…

Próximos Pases (próximas 24 horas)

TLE

ActualizadoSource: CelesTrak SupGP

Época: Sep 14, 2026, 23:17 UTC

1 68398C 26063U   26257.97062500 -.00031411  00000+0 -97481-3 0  2572
2 68398  97.2861  38.8927 0001228  97.3087 135.6634 15.33464197    15

Sigue STARLINK-37220 en tiempo real con AllMySat

Download on the App Store